DW0333 Tranby-Lier NO current weather conditions

sailwx.info

Wind from 005 at 0 knots

Air temperature -7.8° C
Dewpoint -9.1° C

Last reported at 2016-Feb-13 22:48 UTC.
Time now 2016-Feb-13 23:47 UTC

Location: N 59°50' E 010°17'.
View on Google Maps.

See reports from other nearby stations

  
Tides and Currents Weather Stations Pressure Air Temp Water Temp Dewpoint Dewpoint Depression Visibility Wind Speed Wind Dir Waves Ship Positions
date/time (UTC)wind fromknots sea level pressurealtimeterstation pressurevisibilityair tempwater tempwave heightnotes
2016-Feb-13 22:48 005 0 -7.8
2016-Feb-13 22:33 006 0 -7.8
2016-Feb-13 22:18 024 0 -7.8
2016-Feb-13 22:03 023 0 -7.8
2016-Feb-13 21:47 010 -8.3
2016-Feb-13 21:32 008 -8.3
2016-Feb-13 21:17 006 -8.3
2016-Feb-13 21:02 003 0 -8.3
2016-Feb-13 20:47 356 0 -8.3
2016-Feb-13 20:32 356 0 -7.8
2016-Feb-13 20:17 354 -7.8
2016-Feb-13 20:02 353 -7.8
2016-Feb-13 19:47 354 -7.8
2016-Feb-13 19:32 355 -7.8
2016-Feb-13 19:18 354 -7.8
2016-Feb-13 19:02 352 -7.8
2016-Feb-13 18:43 352 -7.8
2016-Feb-13 18:28 352 -8.3
2016-Feb-13 18:14 352 -7.8
2016-Feb-13 17:57 353 -7.8
2016-Feb-13 17:42 352 -7.8
2016-Feb-13 17:27 352 -7.2
2016-Feb-13 17:12 352 -7.2
2016-Feb-13 16:57 352 -6.7
2016-Feb-13 16:41 355 0 -6.7
2016-Feb-13 16:26 341 0 -6.1
2016-Feb-13 16:11 342 0 -5.6
2016-Feb-13 15:56 323 -5.6
2016-Feb-13 15:41 323 -5.6
2016-Feb-13 15:26 323 -5.6
2016-Feb-13 15:11 323 -5.0
2016-Feb-13 14:56 321 -5.0
2016-Feb-13 14:39 329 2 -4.4
2016-Feb-13 14:26 282 1 -3.9
2016-Feb-13 14:08 299 1 -3.3
2016-Feb-13 13:53 293 1 -3.3
2016-Feb-13 13:38 351 1 -2.8
2016-Feb-13 13:22 294 0 -3.3
2016-Feb-13 13:07 288 2 -3.3
2016-Feb-13 12:52 280 0 -3.3
2016-Feb-13 12:36 352 -4.4
2016-Feb-13 12:21 308 1 -4.4
2016-Feb-13 12:06 331 2 -4.4
2016-Feb-13 11:51 315 1 -3.9
2016-Feb-13 11:36 289 1 -4.4
2016-Feb-13 11:21 020 0 -4.4
2016-Feb-13 11:06 318 0 -5.0
2016-Feb-13 10:51 298 2 -5.0
2016-Feb-13 10:34 288 2 -5.0
2016-Feb-13 10:19 355 1 -5.0
2016-Feb-13 10:04 295 0 -5.0
2016-Feb-13 09:49 311 0 -5.0
2016-Feb-13 09:33 350 0 -5.6
2016-Feb-13 09:18 002 0 -5.6
2016-Feb-13 09:03 317 0 -6.1
2016-Feb-13 08:47 317 1 -6.1
2016-Feb-13 08:32 298 1 -6.1
2016-Feb-13 08:17 311 2 -6.1
2016-Feb-13 08:02 313 1 -6.1
2016-Feb-13 07:47 328 1 -6.1
2016-Feb-13 07:32 330 0 -6.1
2016-Feb-13 07:17 294 1 -6.1
2016-Feb-13 07:02 353 1 -6.1
2016-Feb-13 06:47 027 0 -6.1
2016-Feb-13 06:32 024 0 -6.1
2016-Feb-13 06:17 335 0 -6.1
2016-Feb-13 06:02 343 0 -6.1
2016-Feb-13 05:43 335 1 -6.1
2016-Feb-13 05:28 341 1 -6.1
2016-Feb-13 05:13 327 0 -6.1
2016-Feb-13 04:58 353 0 -6.1
2016-Feb-13 04:42 330 1 -6.1
2016-Feb-13 04:27 333 1 -6.1
2016-Feb-13 04:12 294 1 -6.1
2016-Feb-13 03:56 291 2 -6.1
2016-Feb-13 03:41 323 1 -6.1
2016-Feb-13 03:26 299 3 -6.1
2016-Feb-13 03:12 286 4 -6.1
2016-Feb-13 02:56 313 4 -6.1
2016-Feb-13 02:41 308 2 -6.1
2016-Feb-13 02:26 299 2 -6.1
2016-Feb-13 02:11 340 1 -6.1
2016-Feb-13 01:56 281 1 -5.6
2016-Feb-13 01:41 303 1 -5.6
2016-Feb-13 01:26 292 2 -5.6
2016-Feb-13 01:08 298 1 -5.6
2016-Feb-13 00:53 325 2 -5.6
2016-Feb-13 00:38 294 2 -5.6
2016-Feb-13 00:22 288 1 -5.6
2016-Feb-13 00:07 335 0 -5.6
2016-Feb-12 23:52 313 0 -5.6
2016-Feb-12 23:36 329 1 -5.6
2016-Feb-12 23:21 295 1 -5.6
2016-Feb-12 23:06 326 0 -5.6
2016-Feb-12 22:51 301 1 -5.6
2016-Feb-12 22:36 317 2 -5.6
2016-Feb-12 22:21 329 1 -5.6
2016-Feb-12 22:06 313 1 -5.6
2016-Feb-12 21:51 005 1 -5.6
2016-Feb-12 21:34 005 2 -5.6
2016-Feb-12 21:19 287 2 -5.6
2016-Feb-12 21:04 331 2 -5.6
2016-Feb-12 20:49 325 2 -5.6
2016-Feb-12 20:33 347 2 -5.6
2016-Feb-12 20:18 040 3 -5.0
2016-Feb-12 20:03 323 2 -5.0
2016-Feb-12 19:48 314 2 -5.0
2016-Feb-12 19:32 314 2 -5.0
2016-Feb-12 19:17 008 2 -5.0
2016-Feb-12 19:02 327 2 -5.0
2016-Feb-12 18:47 305 1 -5.0
2016-Feb-12 18:32 342 2 -5.0
2016-Feb-12 18:17 303 2 -5.0
2016-Feb-12 18:02 352 3 -5.0
2016-Feb-12 17:47 329 2 -4.4
2016-Feb-12 17:32 315 2 -4.4
2016-Feb-12 17:17 331 2 -4.4
2016-Feb-12 17:02 310 3 -4.4
2016-Feb-12 16:44 325 2 -4.4
2016-Feb-12 16:29 329 2 -4.4
2016-Feb-12 16:13 342 3 -3.9
2016-Feb-12 15:58 329 3 -3.9
2016-Feb-12 15:43 027 4 -3.3
2016-Feb-12 15:28 273 3 -3.3
2016-Feb-12 15:12 309 1 -3.3
2016-Feb-12 14:57 288 2 -3.3
2016-Feb-12 14:41 327 3 -2.8
2016-Feb-12 14:26 331 2 -2.8
2016-Feb-12 14:11 337 2 -2.8
2016-Feb-12 13:56 298 2 -2.8
2016-Feb-12 13:41 312 2 -2.8
2016-Feb-12 13:26 310 3 -2.8
2016-Feb-12 13:11 305 4 -2.8
2016-Feb-12 12:56 009 3 -2.8
2016-Feb-12 12:41 327 4 -2.8
2016-Feb-12 12:26 300 3 -2.8
2016-Feb-12 12:09 276 2 -2.2
2016-Feb-12 11:53 308 5 -2.2
2016-Feb-12 11:38 302 5 -3.3
2016-Feb-12 11:23 300 4 -3.9
2016-Feb-12 11:07 296 4 -3.9
2016-Feb-12 10:52 342 5 -3.9
2016-Feb-12 10:37 306 5 -3.3
2016-Feb-12 10:22 028 4 -3.3
2016-Feb-12 10:06 352 5 -3.3
2016-Feb-12 09:51 028 5 -3.3
2016-Feb-12 09:36 015 5 -3.3
2016-Feb-12 09:21 279 4 -3.9
2016-Feb-12 09:06 277 4 -4.4
2016-Feb-12 08:51 030 4 -5.0
2016-Feb-12 08:36 332 4 -5.0
2016-Feb-12 08:19 340 4 -5.0
2016-Feb-12 08:04 315 5 -5.0
2016-Feb-12 07:49 321 3 -5.6
2016-Feb-12 07:34 322 4 -5.6
2016-Feb-12 07:18 344 4 -5.6
2016-Feb-12 07:04 341 2 -5.6
2016-Feb-12 06:48 323 3 -5.6
2016-Feb-12 06:32 297 3 -5.6
2016-Feb-12 06:17 321 3 -5.6
2016-Feb-12 06:02 299 3 -5.6
2016-Feb-12 05:47 017 3 -5.6
2016-Feb-12 05:32 321 3 -5.6
2016-Feb-12 05:17 333 3 -5.6
2016-Feb-12 05:02 326 3 -5.6
2016-Feb-12 04:47 326 3 -5.6
2016-Feb-12 04:32 269 2 -6.1
2016-Feb-12 04:17 303 3 -5.6
2016-Feb-12 04:02 331 3 -5.6
2016-Feb-12 03:47 008 4 -5.6
2016-Feb-12 03:32 271 3 -5.6
2016-Feb-12 03:13 310 3 -6.1
2016-Feb-12 02:58 327 4 -6.1
2016-Feb-12 02:43 346 3 -6.1
2016-Feb-12 02:27 283 3 -6.1
2016-Feb-12 02:12 090 3 -5.6
2016-Feb-12 01:57 075 4 -5.6
2016-Feb-12 01:41 350 3 -5.6
2016-Feb-12 01:26 308 3 -5.6
2016-Feb-12 01:11 288 4 -5.6
2016-Feb-12 00:56 006 2 -5.6
2016-Feb-12 00:41 327 3 -5.6
2016-Feb-12 00:26 321 3 -5.6
2016-Feb-12 00:11 321 4 -5.6
2016-Feb-11 23:54 115 3 -5.6
2016-Feb-11 23:41 339 3 -5.6
2016-Feb-11 23:26 320 2 -5.6
2016-Feb-11 23:09 016 3 -5.6